TimeCST,TemperatureF,Dew PointF,Humidity,Sea Level PressureIn,VisibilityMPH,Wind Direction,Wind SpeedMPH,Gust SpeedMPH,PrecipitationIn,Events,Conditions,WindDirDegrees,DateUTC
12:52 AM,48.9,34.0,56,29.94,10.0,SSE,13.8,-,N/A,,Clear,160,2012-01-24 06:52:00
1:52 AM,48.0,35.1,61,29.94,10.0,SSE,11.5,-,N/A,,Clear,160,2012-01-24 07:52:00
2:52 AM,48.0,35.1,61,29.93,10.0,SSE,12.7,-,N/A,,Clear,160,2012-01-24 08:52:00
3:52 AM,45.0,35.1,68,29.92,10.0,SE,13.8,-,N/A,,Clear,140,2012-01-24 09:52:00
4:52 AM,46.9,36.0,66,29.93,10.0,ESE,8.1,-,N/A,,Clear,110,2012-01-24 10:52:00
5:52 AM,46.9,36.0,66,29.93,10.0,SSE,15.0,-,N/A,,Mostly Cloudy,160,2012-01-24 11:52:00
6:52 AM,48.9,37.0,64,29.93,10.0,SE,12.7,-,N/A,,Overcast,140,2012-01-24 12:52:00
7:52 AM,48.9,37.0,64,29.95,10.0,SSE,15.0,-,N/A,,Overcast,150,2012-01-24 13:52:00
8:36 AM,50.0,37.4,62,29.97,10.0,SE,16.1,-,N/A,,Overcast,140,2012-01-24 14:36:00
8:52 AM,51.1,39.0,63,29.96,10.0,SE,12.7,-,N/A,,Overcast,140,2012-01-24 14:52:00
9:52 AM,53.1,39.9,61,29.96,10.0,SE,16.1,-,N/A,,Overcast,130,2012-01-24 15:52:00
10:06 AM,53.6,41.0,62,29.98,10.0,SE,18.4,-,N/A,,Overcast,130,2012-01-24 16:06:00
10:52 AM,55.9,42.1,60,29.95,10.0,SE,19.6,-,N/A,,Overcast,130,2012-01-24 16:52:00
11:52 AM,57.9,45.0,62,29.91,10.0,SE,16.1,-,N/A,,Overcast,130,2012-01-24 17:52:00
12:52 PM,60.1,48.9,67,29.87,10.0,ESE,18.4,-,N/A,,Scattered Clouds,120,2012-01-24 18:52:00
1:52 PM,63.0,52.0,67,29.83,10.0,SE,17.3,-,N/A,,Mostly Cloudy,140,2012-01-24 19:52:00
2:16 PM,62.6,53.6,72,29.85,10.0,SE,18.4,-,N/A,,Mostly Cloudy,130,2012-01-24 20:16:00
2:52 PM,62.1,53.1,72,29.81,10.0,SE,17.3,-,N/A,,Overcast,140,2012-01-24 20:52:00
3:52 PM,61.0,53.1,75,29.79,10.0,SE,15.0,-,N/A,,Overcast,130,2012-01-24 21:52:00
4:52 PM,61.0,52.0,72,29.78,10.0,East,8.1,-,N/A,,Overcast,100,2012-01-24 22:52:00
5:52 PM,57.0,50.0,77,29.83,10.0,East,16.1,24.2,N/A,,Overcast,100,2012-01-24 23:52:00
6:10 PM,53.6,51.8,94,29.86,7.0,ESE,17.3,-,N/A,,Overcast,110,2012-01-25 00:10:00
6:52 PM,53.1,52.0,96,29.86,5.0,ESE,12.7,-,N/A,,Overcast,110,2012-01-25 00:52:00
7:52 PM,52.0,51.1,97,29.86,6.0,East,8.1,-,0.00,,Overcast,90,2012-01-25 01:52:00
8:52 PM,51.1,51.1,100,29.86,8.0,East,9.2,-,N/A,,Overcast,100,2012-01-25 02:52:00
9:44 PM,51.8,51.8,100,29.90,6.0,East,5.8,-,N/A,,Overcast,90,2012-01-25 03:44:00
9:52 PM,51.1,51.1,100,29.88,7.0,ENE,3.5,-,N/A,,Overcast,60,2012-01-25 03:52:00
10:52 PM,51.1,50.0,96,29.89,6.0,NNE,4.6,-,N/A,,Overcast,30,2012-01-25 04:52:00
11:26 PM,50.0,50.0,100,29.89,2.5,NNE,6.9,-,N/A,,Overcast,20,2012-01-25 05:26:00
11:52 PM,50.0,50.0,100,29.85,2.5,NNE,5.8,-,0.01,,Overcast,30,2012-01-25 05:52:00